Weather Roundup
Issued by NWS Chicago, IL

Home | Current Version | Previous Version | Text Only | Print | Product List | Glossary Off
Versions: 1 2 3 4 5 6 7 8 9 10 11 12 13 14 15 16 17 18 19 20 21 22 23 24 25 26 27 28 29 30 31 32 33 34 35 36 37 38 39 40 41 42 43 44 45 46 47 48 49 50

193
NZUS59 KLOT 031203
HRRLOT

CHICAGO AREA WEATHER ROUNDUP
NATIONAL WEATHER SERVICE CHICAGO/ROMEOVILLE IL
600 AM CST SAT DEC 03 2016

NOTE: "FAIR" INDICATES FEW OR NO CLOUDS BELOW 12,000 FEET WITH NO
SIGNIFICANT WEATHER AND/OR OBSTRUCTIONS TO VISIBILITY.

* THESE STATIONS ARE NOT UNDER NWS QUALITY CONTROL. THEY ALSO MAY NOT
  REPORT WEATHER SUCH AS PRECIPITATION OR FOG.

ILZ005-006-012>014-019>023-031300-
NORTHEAST ILLINOIS

CITY           SKY/WX    TMP DP  RH WIND       PRES   REMARKS
OHARE          CLOUDY    32  22  66 W6        30.34S WCI  26
6HR MIN TEMP:  32; 6HR MAX TEMP:  34;

MIDWAY         CLOUDY    33  21  61 W8        30.35S WCI  26
6HR MIN TEMP:  33; 6HR MAX TEMP:  35;

AURORA         CLOUDY    33  27  78 W5        30.36R WCI  29
6HR MIN TEMP:  33; 6HR MAX TEMP:  33;

LANSING*       CLOUDY    32  26  76 W10       30.36S WCI  24
JOLIET*        CLOUDY    34  27  74 NW3       30.36S
WAUKEGAN       CLOUDY    31  23  72 CALM      30.34
6HR MIN TEMP:  31; 6HR MAX TEMP:  33;

DUPAGE AIRPORT CLOUDY    32  22  66 NW8       30.34S WCI  25
6HR MIN TEMP:  32; 6HR MAX TEMP:  33;

WHEELING       CLOUDY    32  21  64 W10       30.36R WCI  24
6HR MIN TEMP:  32; 6HR MAX TEMP:  34;

KANKAKEE*      CLOUDY    34  26  71 W8        30.35F WCI  27
MORRIS*        CLOUDY    33  28  81 W8        30.35S WCI  26
LEWIS AIRPORT* CLOUDY    32  27  83 NW6       30.35S WCI  26
NORTHERLY ISL    N/A     34  23  64 W3          N/A
$$

WIZ051-052-058>065-066-070>072-031300-
SOUTHEAST WISCONSIN

CITY           SKY/WX    TMP DP  RH WIND       PRES   REMARKS
MILWAUKEE      CLOUDY    33  22  63 W6        30.32S WCI  28
6HR MIN TEMP:  33; 6HR MAX TEMP:  33;

KENOSHA*       CLOUDY    31  23  72 W6        30.34R WCI  25
RACINE*        CLOUDY    32  22  66 W7        30.35R WCI  26
BURLINGTON     CLOUDY    31  24  77 CALM      30.33S
WEST BEND      CLOUDY    30  25  80 W7        30.30F WCI  23
$$

INZ001>003-010>013-019-020-031300-
NORTHWEST INDIANA

CITY           SKY/WX    TMP DP  RH WIND       PRES   REMARKS
GARY*          CLOUDY    34  25  69 W7        30.36R WCI  28
MICHIGAN CITY* NOT AVBL
RENSSELAER*    NOT AVBL
VALPARAISO     CLOUDY    33  23  66 W9        30.35R WCI  25
$$

LMZ740>746-031300-
SOUTHERN LAKE MICHIGAN

STATION/POSITION TIME  SKY/WX   TEMP WIND        PRES    VSBY
                                AIR  DIR/SP/G
                 (UTC)          (F)  (DEG/KT/KT) (MB)    (MI)
HARRISON CRIB    1140            35  250/ 12/ 14   N/A
BURNHAM HARBOR   1200            33  260/  6/ 11   N/A
CALUMET HARBOR   1130            33  260/  5/  8 1027.1R
BURNS HARBOR     1140            35  260/ 11/ 14 1028.1R
MICHIGAN CITY    1140            35  230/ 14/ 16   N/A
$$

ABBREVIATIONS USED IN REMARKS
   TC - TEMPERATURE IN CELSIUS
  WCI - WIND CHILL INDEX
   HX - HEAT INDEX
  VSB - VISIBILITY
$$




USA.gov is the U.S. government's official web portal to all federal, state and local government web resources and services.